Regional Weather Roundup
Issued by NWS Memphis, TN

Home | Current Version | Previous Version | Text Only | Print | Product List | Glossary On
Versions: 1 2 3 4 5 6 7 8 9 10 11 12 13 14 15 16 17 18 19 20 21 22 23 24 25 26 27 28 29 30 31 32 33 34 35 36 37 38 39 40 41 42 43 44 45 46 47 48 49 50
000
ASUS44 KMEG 301510
RWRMEG
MEMPHIS CWA HOURLY WEATHER ROUNDUP
NATIONAL WEATHER SERVICE MEMPHIS TN
1000 AM CDT TUE JUN 30 2015

...WEST TENNESSEE...

CITY           SKY/WX    TMP DP  RH WIND       PRES   REMARKS
MEMPHIS INTL   PTSUNNY   80  73  79 SW8       29.99R
NWS MEMPHIS      N/A     79 N/A N/A MISG        N/A
JACKSON        MOSUNNY   80  69  69 SW9       29.97R
LEXINGTON      SUNNY     79  70  73 SW7       29.96R
DYERSBURG        N/A    N/A N/A N/A MISG        N/A
PARIS          SUNNY     79  70  73 SW5       29.95S


...EASTERN ARKANSAS...

CITY           SKY/WX    TMP DP  RH WIND       PRES   REMARKS
JONESBORO      SUNNY     82  67  60 NW7       29.95F
WEST MEMPHIS   PTSUNNY   80  75  84 S7        29.97R
BATESVILLE     SUNNY     79  70  73 W3        29.98S
NEWPORT        SUNNY     85  69  58 VRB3      29.98S
WALNUT RIDGE   SUNNY     79  66  65 W6        29.96S
BLYTHEVILLE    SUNNY     81  70  69 W6        29.96R
NW BLYTHEVILLE PTSUNNY   82  70  65 SW5       29.95S
SEARCY         SUNNY     81  72  74 S3        29.99R
STUTTGART      SUNNY     82  73  74 W6        29.98S
PINE BLUFF     MOSUNNY   82  75  79 SW7       29.98S
MONTICELLO     PTSUNNY   79  75  87 S6        29.99F


...NORTH MISSISSIPPI...

CITY           SKY/WX    TMP DP  RH WIND       PRES   REMARKS
TUPELO         CLOUDY    73  69  87 W6        30.02R
OXFORD         CLOUDY    72  66  83 SW6       30.02
OLIVE BRANCH   PTSUNNY   77  77 100 SW10      30.00R
TUNICA         MOSUNNY   79  72  78 SW9       30.00R
CLARKSDALE     PTSUNNY   77  70  78 SW8       30.00S
CORINTH        CLOUDY    79  70  73 SW8G14    29.98S
GREENWOOD      CLOUDY    72  67  84 S3        29.99F
COLUMBUS       LGT RAIN  70  68  94 S6        30.01F
STARKVILLE     FAIR      68  66  94 SW3       30.05F
GOLDEN TRIANGL PTSUNNY   68  64  88 SW10      30.03F


...SOUTHEAST MISSOURI...

CITY           SKY/WX    TMP DP  RH WIND       PRES   REMARKS
WEST PLAINS    SUNNY     74  65  73 W8        30.00S
CAPE GIRARDEAU SUNNY     77  68  73 W7        29.92R


...NORTHWEST ALABAMA...

CITY           SKY/WX    TMP DP  RH WIND       PRES   REMARKS
MUSCLE SHOALS  CLOUDY    77  70  79 SW9       30.02R


...MIDDLE TENNESSEE...

CITY           SKY/WX    TMP DP  RH WIND       PRES   REMARKS
NASHVILLE      CLOUDY    79  72  79 SW5       29.96R
CLARKSVILLE    SUNNY     77  71  82 VRB3      29.94R
COLUMBIA       SUNNY     81  72  74 SW8       29.96S


...WESTERN KENTUCKY...

CITY           SKY/WX    TMP DP  RH WIND       PRES   REMARKS
PADUCAH        SUNNY     79  68  69 W8        29.92R
FORT CAMPBELL  MOSUNNY   78  71  80 W8        29.93S


...CENTRAL ARKANSAS...

CITY           SKY/WX    TMP DP  RH WIND       PRES   REMARKS
LITTLE ROCK    MOSUNNY   85  68  56 N3        29.98R


SKY/WX REPORTED AS FAIR MEANS FEW OR NO CLOUDS BELOW
12 THOUSAND FEET.




USA.gov is the U.S. government's official web portal to all federal, state and local government web resources and services.